Previsão horária em Alobras

Hoje, 16 Janeiro, Sábado

Tempo Temperatura Precipitação Vento Pressão Humidade
00:00 -7°C° 0 mm 4 m/s 652 mmHg 78%
01:00 -7°C° 0 mm 4 m/s 651 mmHg 76%
02:00 -7°C° 0 mm 4 m/s 651 mmHg 74%
03:00 -7°C° 0 mm 4 m/s 651 mmHg 72%
04:00 -7°C° 0 mm 4 m/s 651 mmHg 72%
05:00 -7°C° 0 mm 4 m/s 652 mmHg 71%
06:00 -7°C° 0 mm 5 m/s 652 mmHg 71%
07:00 -7°C° 0 mm 4 m/s 652 mmHg 71%
08:00 -5°C° 0 mm 4 m/s 653 mmHg 72%
09:00 -5°C° 0 mm 4 m/s 653 mmHg 72%
10:00 -2°C° 0 mm 3 m/s 654 mmHg 74%
11:00 -1°C° 0 mm 3 m/s 654 mmHg 75%
12:00 +1°C° 0 mm 3 m/s 654 mmHg 77%
13:00 +1°C° 0 mm 3 m/s 654 mmHg 76%
14:00 +1°C° 0 mm 3 m/s 654 mmHg 75%
15:00 +1°C° 0 mm 3 m/s 654 mmHg 74%
16:00 0°C° 0 mm 3 m/s 653 mmHg 69%
17:00 -2°C° 0 mm 3 m/s 653 mmHg 64%
18:00 -4°C° 0 mm 3 m/s 653 mmHg 59%
19:00 -4°C° 0 mm 3 m/s 653 mmHg 57%
20:00 -4°C° 0 mm 3 m/s 653 mmHg 56%
21:00 -4°C° 0 mm 3 m/s 654 mmHg 55%
22:00 -4°C° 0 mm 3 m/s 654 mmHg 55%
23:00 -4°C° 0 mm 3 m/s 654 mmHg 56%

Amanhã, 17 Janeiro, Domingo

Tempo Temperatura Precipitação Vento Pressão Humidade
00:00 -4°C° 0 mm 3 m/s 654 mmHg 57%
01:00 -4°C° 0 mm 3 m/s 654 mmHg 59%
02:00 -2°C° 0 mm 3 m/s 654 mmHg 61%
03:00 -2°C° 0 mm 3 m/s 653 mmHg 64%
04:00 -2°C° 0 mm 3 m/s 654 mmHg 65%
05:00 -2°C° 0 mm 3 m/s 654 mmHg 66%
06:00 -2°C° 0 mm 3 m/s 654 mmHg 68%
07:00 -1°C° 0 mm 2 m/s 654 mmHg 69%
08:00 -1°C° 0 mm 2 m/s 654 mmHg 70%
09:00 +1°C° 0 mm 2 m/s 655 mmHg 71%
10:00 +1°C° 0 mm 3 m/s 655 mmHg 76%
11:00 +2°C° 0 mm 3 m/s 655 mmHg 80%
12:00 +3°C° 0 mm 3 m/s 655 mmHg 85%
13:00 +3°C° 0 mm 3 m/s 654 mmHg 86%
14:00 +3°C° 0 mm 3 m/s 654 mmHg 87%
15:00 +3°C° 0 mm 3 m/s 654 mmHg 89%
16:00 +2°C° 0 mm 3 m/s 653 mmHg 88%
17:00 +1°C° 0 mm 3 m/s 653 mmHg 87%
18:00 -1°C° 0 mm 3 m/s 653 mmHg 86%
19:00 -1°C° 0 mm 3 m/s 653 mmHg 87%
20:00 -1°C° 0 mm 3 m/s 654 mmHg 88%
21:00 -1°C° 0 mm 3 m/s 654 mmHg 89%
22:00 -1°C° 0 mm 3 m/s 654 mmHg 90%
23:00 -1°C° 0 mm 3 m/s 654 mmHg 90%

Depois de amanhã, 18 Janeiro, Segunda-feira

Tempo Temperatura Precipitação Vento Pressão Humidade
00:00 -1°C° 0 mm 2 m/s 654 mmHg 91%
01:00 -2°C° 0 mm 2 m/s 654 mmHg 92%
02:00 -2°C° 0 mm 2 m/s 654 mmHg 92%
03:00 -2°C° 0 mm 2 m/s 653 mmHg 92%
04:00 -2°C° 0 mm 2 m/s 653 mmHg 92%
05:00 -2°C° 0 mm 2 m/s 653 mmHg 92%
06:00 -2°C° 0 mm 2 m/s 653 mmHg 92%
07:00 -1°C° 0 mm 2 m/s 654 mmHg 91%
08:00 +1°C° 0 mm 1 m/s 654 mmHg 90%
09:00 +2°C° 0 mm 1 m/s 655 mmHg 90%
10:00 +3°C° 0 mm 1 m/s 655 mmHg 89%
11:00 +4°C° 0 mm 1 m/s 655 mmHg 88%
12:00 +5°C° 0 mm 1 m/s 655 mmHg 87%
13:00 +5°C° 0 mm 1 m/s 654 mmHg 86%
14:00 +5°C° 0 mm 1 m/s 654 mmHg 86%
15:00 +5°C° 0 mm 1 m/s 654 mmHg 86%
16:00 +4°C° 0 mm 1 m/s 653 mmHg 87%
17:00 +1°C° 0 mm 0 m/s 653 mmHg 87%
18:00 -1°C° 0 mm 0 m/s 653 mmHg 88%
19:00 -1°C° 0 mm 0 m/s 653 mmHg 87%
20:00 0°C° 0 mm 1 m/s 653 mmHg 86%
21:00 0°C° 0 mm 1 m/s 653 mmHg 86%
22:00 0°C° 0 mm 1 m/s 653 mmHg 85%
23:00 0°C° 0 mm 1 m/s 653 mmHg 85%

19 Janeiro, Terça-feira

Tempo Temperatura Precipitação Vento Pressão Humidade
00:00 0°C° 0 mm 1 m/s 653 mmHg 84%
01:00 -1°C° 0 mm 1 m/s 652 mmHg 84%
02:00 -1°C° 0 mm 1 m/s 652 mmHg 84%
03:00 -1°C° 0 mm 1 m/s 652 mmHg 83%
04:00 -1°C° 0 mm 1 m/s 652 mmHg 82%
05:00 -1°C° 0 mm 1 m/s 651 mmHg 82%
06:00 -1°C° 0 mm 1 m/s 651 mmHg 81%
07:00 0°C° 0 mm 1 m/s 652 mmHg 78%
08:00 +1°C° 0 mm 1 m/s 652 mmHg 75%
09:00 +2°C° 0 mm 1 m/s 653 mmHg 72%
10:00 +2°C° 0 mm 2 m/s 653 mmHg 71%
11:00 +4°C° 0 mm 2 m/s 653 mmHg 70%
12:00 +5°C° 0 mm 2 m/s 653 mmHg 69%
13:00 +4°C° 0 mm 3 m/s 652 mmHg 69%
14:00 +4°C° 0 mm 3 m/s 652 mmHg 68%
15:00 +4°C° 0 mm 3 m/s 651 mmHg 68%
16:00 +2°C° 0 mm 3 m/s 651 mmHg 71%
17:00 +2°C° 0 mm 2 m/s 650 mmHg 74%
18:00 -1°C° 0 mm 2 m/s 649 mmHg 77%
19:00 -1°C° 0 mm 2 m/s 649 mmHg 77%
20:00 -1°C° 0 mm 2 m/s 649 mmHg 78%
21:00 -1°C° 0 mm 3 m/s 649 mmHg 78%
22:00 -1°C° 0 mm 3 m/s 649 mmHg 78%
23:00 -1°C° 0 mm 3 m/s 649 mmHg 79%

20 Janeiro, Quarta-feira

Tempo Temperatura Precipitação Vento Pressão Humidade
00:00 -2°C° 0 mm 4 m/s 648 mmHg 80%
01:00 -2°C° 0 mm 4 m/s 648 mmHg 82%
02:00 -2°C° 0 mm 5 m/s 647 mmHg 84%
03:00 -2°C° 0 mm 5 m/s 647 mmHg 86%
04:00 -2°C° 0 mm 5 m/s 647 mmHg 88%
05:00 -2°C° 0 mm 5 m/s 646 mmHg 90%
06:00 -2°C° 0 mm 5 m/s 646 mmHg 92%
07:00 -3°C° 0 mm 6 m/s 646 mmHg 92%
08:00 -2°C° 0 mm 6 m/s 646 mmHg 91%
09:00 -2°C° 0 mm 7 m/s 645 mmHg 91%
10:00 -1°C° 0.1 mm 8 m/s 645 mmHg 91%
11:00 -1°C° 0.1 mm 8 m/s 645 mmHg 91%
12:00 0°C° 0.1 mm 9 m/s 644 mmHg 91%
13:00 0°C° 0.9 mm 9 m/s 644 mmHg 93%
14:00 0°C° 0.9 mm 8 m/s 643 mmHg 95%
15:00 -1°C° 0.9 mm 8 m/s 642 mmHg 97%
16:00 -1°C° 0.4 mm 8 m/s 642 mmHg 96%
17:00 0°C° 0.4 mm 8 m/s 642 mmHg 95%
18:00 0°C° 0.4 mm 8 m/s 643 mmHg 94%
19:00 0°C° 0.2 mm 8 m/s 643 mmHg 95%
20:00 0°C° 0.2 mm 7 m/s 643 mmHg 95%
21:00 +1°C° 0.2 mm 6 m/s 644 mmHg 95%
22:00 +1°C° 0.3 mm 6 m/s 644 mmHg 95%
23:00 +1°C° 0.3 mm 6 m/s 644 mmHg 95%

21 Janeiro, Quinta-feira

Tempo Temperatura Precipitação Vento Pressão Humidade
00:00 +1°C° 0.3 mm 6 m/s 645 mmHg 95%
01:00 +1°C° 0 mm 6 m/s 645 mmHg 95%
02:00 +1°C° 0 mm 6 m/s 645 mmHg 94%
03:00 +1°C° 0 mm 6 m/s 645 mmHg 93%
04:00 +1°C° 0 mm 6 m/s 645 mmHg 93%
05:00 +1°C° 0 mm 6 m/s 645 mmHg 94%
06:00 -1°C° 0 mm 6 m/s 645 mmHg 94%
07:00 +1°C° 0 mm 6 m/s 646 mmHg 94%
08:00 +1°C° 0 mm 6 m/s 646 mmHg 94%
09:00 0°C° 0 mm 7 m/s 647 mmHg 94%
10:00 0°C° 0 mm 7 m/s 647 mmHg 93%
11:00 0°C° 0 mm 7 m/s 646 mmHg 92%
12:00 +2°C° 0 mm 7 m/s 646 mmHg 91%
13:00 +1°C° 0 mm 8 m/s 646 mmHg 90%
14:00 +1°C° 0 mm 9 m/s 646 mmHg 89%
15:00 +1°C° 0 mm 10 m/s 645 mmHg 88%
16:00 +1°C° 0.1 mm 10 m/s 645 mmHg 89%
17:00 +1°C° 0.1 mm 11 m/s 645 mmHg 89%
18:00 +1°C° 0.1 mm 11 m/s 645 mmHg 90%
19:00 0°C° 0.4 mm 12 m/s 645 mmHg 90%
20:00 +2°C° 0.4 mm 12 m/s 645 mmHg 90%
21:00 +2°C° 0.4 mm 12 m/s 645 mmHg 91%
22:00 +1°C° 0.2 mm 13 m/s 645 mmHg 89%
23:00 +1°C° 0.2 mm 14 m/s 645 mmHg 87%
Mostrar mais

Necessitamos do seu Consentimento

A Meteoprog e os seus Fornecedores de Serviços podem armazenar e aceder a dados pessoais como cookies, identificadores do dispositivo ou outras tecnologias semelhantes existentes no seu dispositivo e processar estes dados para personalizar conteúdos e anúncios, assim como funcionalidades nas redes sociais e análise de tráfego.

  • Armazenar e/ou aceder a informações no seu dispositivo

    Os cookies, identificadores do dispositivo ou outras informações podem ser armazenados ou acedidos no seu dispositivo, para os fins acima indicados.

  • Anúncios e conteúdos personalizados, medição de anúncios e conteúdos, dados sobre o público-alvo e desenvolvimento de produtos

    Os anúncios e os conteúdos podem ser personalizados com base num perfil. Podem ser adicionados dados adicionais para uma maior personalização dos anúncios e dos conteúdos. A eficácia dos anúncios e dos conteúdos pode ser medida. Podem ser obtidas informações sobre o público que visualizou os anúncios e os conteúdos. Estes dados podem ser usados para desenvolver ou melhorar sistemas, softwares ou a experiência do utilizador.

Ao clicar em "Eu concordo”, permitirá o uso de cookies, identificadores do dispositivo e web beacons mencionados ou outras tecnologias semelhantes. As configurações do navegador do seu dispositivo podem ser alteradas.

Para certos fins, podem ser invocados interesses legítimos ao invés de consentimento. Pode ler mais informação sobre este assunto na nossa Política de Privacidade e Cookies.